Flag for Switzerland Weather past 2 weeks in Langenthal, Bern, Switzerland

Now
78 °F

Warm.


Feels Like: 79 °F
Forecast: 53 / 82 °F
Wind: 5 mph from Southwest

Location: Wynau

Current Time: Jun 3, 2015 at 1:38:29 PM

Latest Report: Jun 3, 2015 at 1:00 PM


Visibility: N/A

Pressure: 30.15 "Hg

Humidity: 43%

Dew point: 54 °F

Location of LangenthalLocation

Historic Weather in Langenthal — Graph

°F

Langenthal temperature yesterday

Maximum temperature yesterday: 79 °F (at 4:00 PM)
Minimum temperature yesterday: 54 °F (at 3:00 AM)
Average temperature yesterday: 67 °F

Past Weeks' High & Low Weather Summary

 TemperatureHumidityPressure
High79 °F (Jun 2, 4:00 PM)100% (May 22, 1:00 AM)30.34 "Hg (May 22, 1:00 AM)
Low39 °F (May 28, 6:00 AM)29% (May 29, 5:00 PM)29.77 "Hg (May 29, 6:00 PM)
Average57 °F73%30.06 "Hg
* Reported May 19 12:00 Noon — Jun 3 12:00 Noon, Langenthal, Weather by CustomWeather, © 2015

Note: Actual official high and low records may vary slightly from our data, if they occured in-between our weather recording intervals... More about our weather records

Advertising

Langenthal weather history for previous 24 hours

 ConditionsComfort  
Time TempWeatherWind HumidityBarometerVisibility
12:00 PM
Wed, Jun 3
76 °FMild.5 mph43%30.17 "HgN/A
11:00 AM74 °FMild.2 mph50%30.18 "HgN/A
10:00 AM69 °FMild.3 mph58%30.19 "HgN/A
9:00 AM65 °FMild.2 mph73%30.21 "HgN/A
8:00 AM59 °FCool.1 mph82%30.22 "HgN/A
7:00 AM54 °FCool.No wind90%30.22 "HgN/A
6:00 AM53 °FCool.1 mph88%30.20 "HgN/A
5:00 AM52 °FCool.2 mph94%30.19 "HgN/A
4:00 AM54 °FCool.1 mph86%30.18 "HgN/A
3:00 AM54 °FCool.1 mph86%30.18 "HgN/A
2:00 AM56 °FCool.2 mph90%30.17 "HgN/A
1:00 AM58 °FCool.1 mph81%30.15 "HgN/A
12:00 AM59 °FCool.2 mph86%30.14 "HgN/A
10:00 PM
Tue, Jun 2
64 °FMild.2 mph77%30.09 "HgN/A
9:00 PM67 °FMild.2 mph68%30.06 "HgN/A
8:00 PM77 °FMild.3 mph43%30.03 "HgN/A
7:00 PM79 °FPleasantly warm.7 mph38%30.01 "HgN/A
6:00 PM79 °FPleasantly warm.9 mph37%30.01 "HgN/A
5:00 PM79 °FPleasantly warm.10 mph37%30.01 "HgN/A
4:00 PM79 °FPleasantly warm.10 mph39%30.01 "HgN/A
3:00 PM76 °FMild.7 mph48%30.03 "HgN/A
2:00 PM76 °FMild.9 mph49%30.04 "HgN/A
1:00 PM74 °FMild.8 mph54%30.06 "HgN/A
Weather by CustomWeather, © 2015

See weather overviewHow to use our weather pages